(356) Liguria
ephemeris date magn radius delta ra dec elong phase
Today14 Jul 202614.22.923 AU3.254 AU11h32m+00°35'62.3°17.9°
Opposition21 May 202713.23.390 AU2.390 AU15h40m-30°30'169.4°3.2°
(356) Liguria - 2026-07-14
astro.vanbuitenen.nl


 
-1 year
-1 month
-1 day
Now
+1 day
+1 month
+1 year

The interactive orbit chart above shows the body's path through the solar system and its position at the given date. Green and blue lines are shown perpendicular to the ecliptic plane: Green if the path is above the ecliptic plane, blue if it is below. (Left-click and drag to rotate the view; Right-click and drag to move the view; Use scroll wheel to zoom in our out.)

The orbital elements of Liguria are:

            e (Eccentricity)                : 0.2420203
            a (Semimajor axis)              : 2.7537605
            i (Inclination)                 : 8.20731
            Ω (Longitude of ascending node) : 354.44459
            ω (Argument of perihelion)      : 79.27114
            M (Mean anomaly)                : 83.78899
            Epoch                           : 2026 Jun 09

            L (Longitude of perihelion)     : 73.60732
            B (Latitude of perihelion)      : 8.06288
            P (Orbital period in years)     : 4.57            
        

The light curve chart below shows the estimated development of the minor planet's magnitude.


The all-sky chart below shows the path of the minor planet over the same period as the light curve. The current position is marked yellow.





The following chart shows the path of the minor planet in the next few days. The field of view is optimized for (~10x50) binoculars and finderscopes.




Ephemerides:
Date       Time       RA (2000)    DEC (2000)    delta   radius  elong  phase   PA    magn
2026-07-14 00:00 UT   11 32 40.8   +00 35 26     3.254    2.923   62.3   17.9   114   14.2 
2026-07-14 06:16 UT   11 32 58.2   +00 33 18     3.258    2.924   62.1   17.9   114   14.2 
2026-07-15 00:00 UT   11 33 47.6   +00 27 16     3.268    2.926   61.6   17.8   114   14.2 
2026-07-16 00:00 UT   11 34 54.7   +00 19 04     3.283    2.928   61.0   17.7   115   14.2 
2026-07-17 00:00 UT   11 36 02.2   +00 10 50     3.297    2.930   60.4   17.5   115   14.2 
2026-07-18 00:00 UT   11 37 10.0   +00 02 34     3.311    2.933   59.7   17.4   115   14.2 
2026-07-19 00:00 UT   11 38 18.2   +00 05 44     3.324    2.935   59.1   17.3   115   14.2 
2026-07-20 00:00 UT   11 39 26.6   +00 14 03     3.338    2.937   58.4   17.1   115   14.2 
2026-07-21 00:00 UT   11 40 35.4   +00 22 25     3.352    2.939   57.8   17.0   115   14.2 
2026-07-22 00:00 UT   11 41 44.5   +00 30 49     3.366    2.942   57.2   16.9   115   14.2 
2026-07-23 00:00 UT   11 42 53.8   +00 39 14     3.379    2.944   56.5   16.7   115   14.3 
2026-07-24 00:00 UT   11 44 03.5   +00 47 42     3.393    2.946   55.9   16.6   115   14.3 
2026-07-25 00:00 UT   11 45 13.4   +00 56 11     3.406    2.948   55.3   16.5   115   14.3 
2026-07-26 00:00 UT   11 46 23.7   -01 04 41     3.419    2.951   54.7   16.3   115   14.3 
2026-07-27 00:00 UT   11 47 34.2   -01 13 13     3.433    2.953   54.0   16.2   115   14.3 
2026-07-28 00:00 UT   11 48 44.9   -01 21 47     3.446    2.955   53.4   16.0   115   14.3 
2026-07-29 00:00 UT   11 49 55.9   -01 30 23     3.459    2.957   52.8   15.9   115   14.3 
2026-07-30 00:00 UT   11 51 07.2   -01 38 59     3.472    2.959   52.2   15.7   115   14.3 
2026-07-31 00:00 UT   11 52 18.8   -01 47 38     3.485    2.962   51.5   15.6   115   14.3 
2026-08-01 00:00 UT   11 53 30.6   -01 56 18     3.497    2.964   50.9   15.4   115   14.3 
2026-08-02 00:00 UT   11 54 42.6   -02 04 59     3.510    2.966   50.3   15.3   115   14.3 
2026-08-03 00:00 UT   11 55 54.9   -02 13 41     3.523    2.968   49.7   15.1   116   14.3 
2026-08-04 00:00 UT   11 57 07.4   -02 22 25     3.535    2.971   49.0   14.9   116   14.3 
2026-08-05 00:00 UT   11 58 20.2   -02 31 11     3.547    2.973   48.4   14.8   116   14.3 
2026-08-06 00:00 UT   11 59 33.2   -02 39 57     3.560    2.975   47.8   14.6   116   14.3 
2026-08-07 00:00 UT   12 00 46.4   -02 48 45     3.572    2.977   47.2   14.5   116   14.3 
2026-08-08 00:00 UT   12 01 59.9   -02 57 35     3.584    2.979   46.6   14.3   116   14.3 
2026-08-09 00:00 UT   12 03 13.5   -03 06 25     3.596    2.981   46.0   14.1   116   14.3 


    Terminology:
            
    delta:  distance between minor planet and earth in AU
    radius: distance between minor planet and sun in AU
    magn:   magnitude (brightness) estimate    
    ra:     right ascension in hours (24h = 360deg)
    dec:    declination in degrees
    elong:  elongation in degrees (angle sun-earth-minor planet)    
    phase:  phase angle in degrees (angle sun-minor planet-earth)        
    AU:     Astronomical Unit (mean distance between earth and sun: 149597870.7 km
    

Orbital elements provided by the MPC (Minor Planet Center).
Calculations by a modified version of AAPlus, a C# implementation of the AA+ project by PJ Naughter from the algorithms presented in the book "Astronomical Algorithms" by Jean Meeus.
NGC2000 dso catalog and star labels from VizieR as provided by the Strasbourg astronomical Data Center.
Tycho2 catalog from the ESO archive.